DKH8115 ZSSS-ZSFZ

Flight info

Callsign DKH8115
Flight time N/A
Altitude 27600
Route AND B221 RUPOX
Aircraft A20N/M-SDE2E3FGHIRWXY/LB1

Departure

Time 2026-05-01 10:59
Airport Shanghai Hongqiao International Airport (ZSSS)

Arrival

Time N/A
Airport Fuzhou Changle International Airport (ZSFZ)
Time Latitude Longitude Altitude Speed Heading
2026-05-01 10:41 31.19324 121.32832 20 ft 0 kts 334°
2026-05-01 10:47 31.19315 121.32836 20 ft 2 kts 334°
2026-05-01 10:47 31.19301 121.32844 20 ft 2 kts 334°
2026-05-01 10:47 31.19287 121.32851 20 ft 2 kts 334°
2026-05-01 10:48 31.19273 121.32857 20 ft 2 kts 353°
2026-05-01 10:48 31.19258 121.32857 20 ft 2 kts 17°
2026-05-01 10:48 31.19245 121.32848 20 ft 2 kts 48°
2026-05-01 10:48 31.19237 121.32832 20 ft 1 kts 80°
2026-05-01 10:49 31.19237 121.32825 20 ft 1 kts 92°
2026-05-01 10:49 31.19237 121.32821 19 ft 0 kts 88°
2026-05-01 10:51 31.19237 121.32825 19 ft 2 kts 88°
2026-05-01 10:51 31.19238 121.32862 20 ft 5 kts 88°
2026-05-01 10:52 31.19240 121.32909 20 ft 6 kts 87°
2026-05-01 10:52 31.19244 121.32988 21 ft 12 kts 87°
2026-05-01 10:52 31.19275 121.33079 21 ft 13 kts 14°
2026-05-01 10:52 31.19371 121.33077 21 ft 15 kts 357°
2026-05-01 10:53 31.19499 121.33070 20 ft 21 kts 357°
2026-05-01 10:53 31.19668 121.33061 19 ft 24 kts 357°
2026-05-01 10:53 31.19834 121.33052 20 ft 23 kts 357°
2026-05-01 10:53 31.19992 121.33044 20 ft 22 kts 357°
2026-05-01 10:54 31.20145 121.33035 20 ft 22 kts 356°
2026-05-01 10:54 31.20299 121.33027 18 ft 22 kts 357°
2026-05-01 10:54 31.20453 121.33019 17 ft 21 kts 357°
2026-05-01 10:54 31.20602 121.33010 17 ft 21 kts 357°
2026-05-01 10:55 31.20747 121.33003 18 ft 20 kts 357°
2026-05-01 10:55 31.20883 121.32995 20 ft 18 kts 357°
2026-05-01 10:55 31.21011 121.32987 21 ft 17 kts 357°
2026-05-01 10:55 31.21135 121.32981 21 ft 18 kts 357°
2026-05-01 10:56 31.21229 121.32976 20 ft 9 kts 357°
2026-05-01 10:56 31.21285 121.33001 21 ft 8 kts 67°
2026-05-01 10:56 31.21289 121.33025 22 ft 0 kts 85°
2026-05-01 10:57 31.21290 121.33034 22 ft 3 kts 86°
2026-05-01 10:57 31.21292 121.33075 23 ft 6 kts 87°
2026-05-01 10:57 31.21293 121.33116 25 ft 4 kts 87°
2026-05-01 10:58 31.21280 121.33157 25 ft 6 kts 149°
2026-05-01 10:58 31.21228 121.33167 25 ft 8 kts 178°
2026-05-01 10:58 31.21141 121.33172 24 ft 29 kts 176°
2026-05-01 10:58 31.20651 121.33199 20 ft 106 kts 177°
2026-05-01 10:59 31.19692 121.33252 34 ft 164 kts 176°
2026-05-01 10:59 31.18519 121.33303 551 ft 173 kts 176°
2026-05-01 10:59 31.17326 121.33350 1317 ft 173 kts 175°
2026-05-01 10:59 31.16141 121.33414 2046 ft 174 kts 174°
2026-05-01 11:00 31.14870 121.33490 2525 ft 190 kts 174°
2026-05-01 11:00 31.13480 121.33570 2998 ft 207 kts 175°
2026-05-01 11:00 31.11947 121.33652 3385 ft 232 kts 175°
2026-05-01 11:00 31.10285 121.33736 3912 ft 250 kts 176°
2026-05-01 11:01 31.08467 121.33826 4487 ft 266 kts 176°
2026-05-01 11:01 31.06588 121.33695 4813 ft 270 kts 196°
2026-05-01 11:01 31.04973 121.32556 4925 ft 272 kts 226°
2026-05-01 11:01 31.04050 121.30629 4924 ft 273 kts 256°
2026-05-01 11:02 31.04019 121.28439 4936 ft 274 kts 281°
2026-05-01 11:02 31.04455 121.26233 4954 ft 276 kts 283°
2026-05-01 11:02 31.04899 121.24046 4959 ft 276 kts 282°
2026-05-01 11:02 31.05327 121.21843 5041 ft 282 kts 281°
2026-05-01 11:03 31.05754 121.19576 5862 ft 286 kts 281°
2026-05-01 11:03 31.06167 121.17339 6954 ft 282 kts 281°
2026-05-01 11:03 31.06578 121.15083 7930 ft 284 kts 281°
2026-05-01 11:03 31.06817 121.12823 8801 ft 285 kts 268°
2026-05-01 11:04 31.06559 121.10516 9702 ft 285 kts 255°
2026-05-01 11:04 31.06029 121.08276 10464 ft 289 kts 253°
2026-05-01 11:04 31.05446 121.05958 10947 ft 306 kts 253°
2026-05-01 11:04 31.04823 121.03488 11320 ft 324 kts 253°
2026-05-01 11:05 31.04171 121.00881 11682 ft 342 kts 253°
2026-05-01 11:05 31.03528 120.98296 11981 ft 358 kts 253°
2026-05-01 11:05 31.02809 120.95386 12277 ft 375 kts 253°
2026-05-01 11:05 31.02067 120.92374 12555 ft 391 kts 253°
2026-05-01 11:06 31.01298 120.89257 12902 ft 403 kts 253°
2026-05-01 11:06 31.00507 120.86050 13518 ft 407 kts 253°
2026-05-01 11:06 30.99777 120.83088 14110 ft 409 kts 253°
2026-05-01 11:07 30.98219 120.76792 15373 ft 411 kts 253°
2026-05-01 11:07 30.97420 120.73566 15963 ft 412 kts 253°
2026-05-01 11:07 30.96606 120.70283 16533 ft 414 kts 254°
2026-05-01 11:07 30.95789 120.66991 17092 ft 415 kts 254°
2026-05-01 11:08 30.94978 120.63726 17639 ft 416 kts 254°
2026-05-01 11:08 30.94158 120.60430 18129 ft 418 kts 254°
2026-05-01 11:08 30.92514 120.53837 19027 ft 423 kts 254°
2026-05-01 11:09 30.91691 120.50545 19443 ft 425 kts 255°
2026-05-01 11:09 30.90823 120.47214 19841 ft 428 kts 251°
2026-05-01 11:09 30.89516 120.44168 20258 ft 432 kts 239°